Weather in Novopokrovka

Ukraine / Dnipropetrovsk Region     48°03′21″N   34°36′12″E
temp.,
°C
wind,
m/s
gust,
m/s
humid.,
%
clouds,
%
prec.,
mm/h
press.,
hPa
HPBL,
m
9 may, sun
sun900:00+6nnw81483100 0.0 1015805
03:00+5nnw61483100 0.0 1017653
06:00+4nw5139029 0.0 1018683
09:00+9nnw912585 0.0 10201444
12:00+12nnw912425 0.0 10212007
15:00+13nnw91138100 0.0 10212788
18:00+13nnw7104715 0.0 10222713
21:00+8nnw35634 0.0 102577
10 may, mon
mon1000:00+6nw466617 0.0 1026102
03:00+5nnw35710 0.0 102677
06:00+5nnw36730 0.0 1027117
09:00+11nnw57510 0.0 10271303
12:00+14n67405 0.0 10262164
15:00+15nnw783795 0.0 10242542
18:00+14nnw68468 0.0 10222301
21:00+9nw512657 0.0 1022246
11 may, tue
tue1100:00+8nw71469100 0.0 1019420
03:00+8nnw91574100 0.3 1017749
06:00+9nnw81577100 0.0 1016578
09:00+10n7138179 0.1 1015689
12:00+12n6985100 0.1 10141012
15:00+10ene578860 0.8 1015489
18:00+11ne69655 0.0 1015975
21:00+8nne5107721 0.1 1015361
12 may, wed
wed1200:00+8nne4784100 0.2 1015466
03:00+7ne4790100 0.4 1014337
06:00+6ene599257 0.1 1015384
09:00+10e446834 0.2 1014970
12:00+12sse225883 1.3 10131199
15:00+13ssw445730 2.7 10131349
18:00+14ssw45565 0.6 10131469
21:00+10sse33735 0.6 101421
13 may, thu
thu1300:00+8se22752 0.0 101416
03:00+8ese339413 0.0 101436
06:00+9e359712 0.0 1014102
09:00+15ese467171 0.0 1014561
12:00+20ese6752100 0.0 10131250
15:00+21se6855100 0.0 10121506
18:00+21se5957100 0.0 1011621
21:00+16ese411811 0.0 1011201